Time,TemperatureF,DewpointF,PressureIn,WindDirection,WindDirectionDegrees,WindSpeedMPH,WindSpeedGustMPH,Humidity,HourlyPrecipIn,Conditions,Clouds,dailyrainin,SoftwareType,DateUTC
2013-04-16 00:02:00,41.8,32.4,30.07,North,4,8.0,8.0,69,0.00,,FEW110,0.00,VWS V14.01,2013-04-16 05:02:00,
2013-04-16 00:07:00,41.7,32.7,30.07,NNE,27,8.0,11.0,70,0.00,,FEW110,0.00,VWS V14.01,2013-04-16 05:07:00,
2013-04-16 00:12:00,41.6,32.6,30.08,NNE,17,5.0,10.0,70,0.00,,FEW110,0.00,VWS V14.01,2013-04-16 05:12:00,
2013-04-16 00:17:00,41.5,32.5,30.08,North,354,6.0,8.0,70,0.00,,FEW110,0.00,VWS V14.01,2013-04-16 05:17:00,
2013-04-16 00:22:00,41.3,32.6,30.08,North,11,6.0,6.0,71,0.00,,FEW110,0.00,VWS V14.01,2013-04-16 05:22:00,
2013-04-16 00:27:00,41.2,32.2,30.08,North,9,4.0,8.0,70,0.00,,FEW110,0.00,VWS V14.01,2013-04-16 05:27:00,
2013-04-16 00:32:00,41.1,32.1,30.08,NNE,15,5.0,10.0,70,0.00,,FEW110,0.00,VWS V14.01,2013-04-16 05:32:00,
2013-04-16 00:37:00,40.9,31.9,30.08,NNE,31,5.0,10.0,70,0.00,,FEW110,0.00,VWS V14.01,2013-04-16 05:37:00,
2013-04-16 00:42:00,40.6,31.6,30.08,NNE,18,8.0,9.0,70,0.00,,FEW110,0.00,VWS V14.01,2013-04-16 05:42:00,
2013-04-16 00:47:00,40.3,31.7,30.08,NNE,19,6.0,8.0,71,0.00,,FEW110,0.00,VWS V14.01,2013-04-16 05:47:00,
2013-04-16 00:52:00,40.0,31.7,30.08,NE,34,7.0,11.0,72,0.00,,FEW110,0.00,VWS V14.01,2013-04-16 05:52:00,
2013-04-16 00:57:00,39.6,31.3,30.08,NNE,27,6.0,13.0,72,0.00,,FEW110,0.00,VWS V14.01,2013-04-16 05:57:00,
2013-04-16 01:02:00,39.2,31.3,30.07,North,4,9.0,10.0,73,0.00,,FEW110,0.00,VWS V14.01,2013-04-16 06:02:00,
2013-04-16 01:07:00,38.9,31.0,30.07,North,354,5.0,8.0,73,0.00,,FEW110,0.00,VWS V14.01,2013-04-16 06:07:00,
2013-04-16 01:12:00,38.7,30.8,30.07,NNE,12,7.0,10.0,73,0.00,,FEW110,0.00,VWS V14.01,2013-04-16 06:12:00,
2013-04-16 01:17:00,38.5,30.6,30.06,NNE,23,9.0,11.0,73,0.00,,FEW110,0.00,VWS V14.01,2013-04-16 06:17:00,
2013-04-16 01:22:00,38.2,30.7,30.06,North,4,9.0,12.0,74,0.00,,FEW110,0.00,VWS V14.01,2013-04-16 06:22:00,
2013-04-16 01:27:00,38.0,30.5,30.07,NNE,16,7.0,8.0,74,0.00,,FEW110,0.00,VWS V14.01,2013-04-16 06:27:00,
2013-04-16 01:32:00,37.8,30.6,30.07,NNE,21,8.0,8.0,75,0.00,,FEW110,0.00,VWS V14.01,2013-04-16 06:32:00,
2013-04-16 01:37:00,37.7,30.5,30.08,NE,39,4.0,8.0,75,0.00,,FEW110,0.00,VWS V14.01,2013-04-16 06:37:00,
2013-04-16 01:42:00,37.5,30.3,30.07,NNE,25,4.0,7.0,75,0.00,,FEW110,0.00,VWS V14.01,2013-04-16 06:42:00,
2013-04-16 01:47:00,37.4,30.2,30.08,NE,39,6.0,7.0,75,0.00,,FEW110,0.00,VWS V14.01,2013-04-16 06:47:00,
2013-04-16 01:52:00,37.2,30.4,30.09,North,8,4.0,4.0,76,0.00,,FEW110,0.00,VWS V14.01,2013-04-16 06:52:00,
2013-04-16 01:57:00,36.9,30.0,30.09,North,9,3.0,4.0,76,0.00,,FEW110,0.00,VWS V14.01,2013-04-16 06:57:00,
2013-04-16 02:02:00,36.7,29.9,30.08,NE,35,4.0,6.0,76,0.00,,BKN100,0.00,VWS V14.01,2013-04-16 07:02:00,
2013-04-16 02:07:00,36.5,30.0,30.10,North,11,4.0,5.0,77,0.00,,BKN100,0.00,VWS V14.01,2013-04-16 07:07:00,
2013-04-16 02:12:00,36.4,29.9,30.09,NNE,29,5.0,5.0,77,0.00,,BKN100,0.00,VWS V14.01,2013-04-16 07:12:00,
2013-04-16 02:17:00,36.2,29.7,30.08,NNE,20,4.0,5.0,77,0.00,,BKN100,0.00,VWS V14.01,2013-04-16 07:17:00,
2013-04-16 02:22:00,36.1,29.9,30.08,North,10,6.0,6.0,78,0.00,,BKN100,0.00,VWS V14.01,2013-04-16 07:22:00,
2013-04-16 02:27:00,35.9,29.7,30.08,NNE,23,4.0,6.0,78,0.00,,BKN100,0.00,VWS V14.01,2013-04-16 07:27:00,
2013-04-16 02:32:00,35.7,29.5,30.08,NNE,24,5.0,7.0,78,0.00,,BKN100,0.00,VWS V14.01,2013-04-16 07:32:00,
2013-04-16 02:37:00,35.6,29.4,30.07,NE,35,4.0,6.0,78,0.00,,BKN100,0.00,VWS V14.01,2013-04-16 07:37:00,
2013-04-16 02:42:00,35.4,29.2,30.06,NNE,32,3.0,6.0,78,0.00,,BKN100,0.00,VWS V14.01,2013-04-16 07:42:00,
2013-04-16 02:47:00,35.2,29.4,30.07,NE,39,4.0,6.0,79,0.00,,BKN100,0.00,VWS V14.01,2013-04-16 07:47:00,
2013-04-16 02:52:00,35.1,29.3,30.08,NE,39,2.0,6.0,79,0.00,,BKN100,0.00,VWS V14.01,2013-04-16 07:52:00,
2013-04-16 02:57:00,34.9,29.1,30.09,NNE,23,3.0,4.0,79,0.00,,BKN100,0.00,VWS V14.01,2013-04-16 07:57:00,
2013-04-16 03:02:00,34.7,29.2,30.09,North,8,5.0,5.0,80,0.00,,SCT120,0.00,VWS V14.01,2013-04-16 08:02:00,
2013-04-16 03:07:00,34.6,29.1,30.10,NNE,25,3.0,4.0,80,0.00,,SCT120,0.00,VWS V14.01,2013-04-16 08:07:00,
2013-04-16 03:12:00,34.5,29.0,30.10,NNE,31,0.0,3.0,80,0.00,,SCT120,0.00,VWS V14.01,2013-04-16 08:12:00,
2013-04-16 03:17:00,34.4,28.9,30.11,NE,36,3.0,4.0,80,0.00,,SCT120,0.00,VWS V14.01,2013-04-16 08:17:00,
2013-04-16 03:22:00,34.3,28.8,30.11,NE,36,1.0,3.0,80,0.00,,SCT120,0.00,VWS V14.01,2013-04-16 08:22:00,
2013-04-16 03:27:00,34.2,29.0,30.11,NE,35,1.0,3.0,81,0.00,,SCT120,0.00,VWS V14.01,2013-04-16 08:27:00,
2013-04-16 03:32:00,34.1,28.9,30.12,NNE,27,1.0,4.0,81,0.00,,SCT120,0.00,VWS V14.01,2013-04-16 08:32:00,
2013-04-16 03:37:00,34.0,28.8,30.12,NNE,27,2.0,2.0,81,0.00,,SCT120,0.00,VWS V14.01,2013-04-16 08:37:00,
2013-04-16 03:42:00,33.9,28.7,30.13,NNE,27,3.0,3.0,81,0.00,,SCT120,0.00,VWS V14.01,2013-04-16 08:42:00,
2013-04-16 03:47:00,33.9,28.7,30.14,NNE,12,3.0,4.0,81,0.00,,SCT120,0.00,VWS V14.01,2013-04-16 08:47:00,
2013-04-16 03:52:00,33.8,28.9,30.14,NNE,12,2.0,2.0,82,0.00,,SCT120,0.00,VWS V14.01,2013-04-16 08:52:00,
2013-04-16 03:58:00,33.7,28.8,30.14,NNE,12,1.0,2.0,82,0.00,,SCT120,0.00,VWS V14.01,2013-04-16 08:58:00,
2013-04-16 04:03:00,33.7,28.8,30.15,NNE,12,1.0,2.0,82,0.00,,FEW110,0.00,VWS V14.01,2013-04-16 09:03:00,
2013-04-16 04:08:00,33.5,28.6,30.14,NNE,12,2.0,2.0,82,0.00,,FEW110,0.00,VWS V14.01,2013-04-16 09:08:00,
2013-04-16 04:13:00,33.5,28.6,30.15,NNE,12,2.0,3.0,82,0.00,,FEW110,0.00,VWS V14.01,2013-04-16 09:13:00,
2013-04-16 04:18:00,33.4,28.5,30.15,NNE,24,2.0,4.0,82,0.00,,FEW110,0.00,VWS V14.01,2013-04-16 09:18:00,
2013-04-16 04:23:00,33.4,28.5,30.15,NNE,23,3.0,4.0,82,0.00,,FEW110,0.00,VWS V14.01,2013-04-16 09:23:00,
2013-04-16 04:28:00,33.3,28.7,30.15,NNE,23,2.0,2.0,83,0.00,,FEW110,0.00,VWS V14.01,2013-04-16 09:28:00,
2013-04-16 04:33:00,33.2,28.6,30.15,NNE,23,3.0,4.0,83,0.00,,FEW110,0.00,VWS V14.01,2013-04-16 09:33:00,
2013-04-16 04:38:00,33.2,28.6,30.15,NNE,23,1.0,2.0,83,0.00,,FEW110,0.00,VWS V14.01,2013-04-16 09:38:00,
2013-04-16 04:43:00,33.2,28.6,30.16,NNE,23,3.0,3.0,83,0.00,,FEW110,0.00,VWS V14.01,2013-04-16 09:43:00,
2013-04-16 04:48:00,33.0,28.4,30.15,NNE,23,0.0,2.0,83,0.00,,FEW110,0.00,VWS V14.01,2013-04-16 09:48:00,
2013-04-16 04:53:00,32.9,28.3,30.15,NNE,23,2.0,3.0,83,0.00,,FEW110,0.00,VWS V14.01,2013-04-16 09:53:00,
2013-04-16 04:58:00,32.9,28.6,30.15,NNE,23,0.0,4.0,84,0.00,,FEW110,0.00,VWS V14.01,2013-04-16 09:58:00,
2013-04-16 05:03:00,32.9,28.6,30.15,NNE,23,3.0,4.0,84,0.00,,OVC100,0.00,VWS V14.01,2013-04-16 10:03:00,
2013-04-16 05:08:00,33.0,28.7,30.15,NNE,24,3.0,4.0,84,0.00,,OVC100,0.00,VWS V14.01,2013-04-16 10:08:00,
2013-04-16 05:13:00,33.1,28.8,30.14,NNE,24,3.0,3.0,84,0.00,,OVC100,0.00,VWS V14.01,2013-04-16 10:13:00,
2013-04-16 05:18:00,33.2,28.9,30.14,NNE,23,0.0,3.0,84,0.00,,OVC100,0.00,VWS V14.01,2013-04-16 10:18:00,
2013-04-16 05:23:00,33.3,29.0,30.15,NNE,23,2.0,2.0,84,0.00,,OVC100,0.00,VWS V14.01,2013-04-16 10:23:00,
2013-04-16 05:28:00,33.4,29.1,30.15,NNE,23,2.0,4.0,84,0.00,,OVC100,0.00,VWS V14.01,2013-04-16 10:28:00,
2013-04-16 05:33:00,33.5,29.2,30.15,NNE,29,2.0,3.0,84,0.00,,OVC100,0.00,VWS V14.01,2013-04-16 10:33:00,
2013-04-16 05:38:00,33.5,29.2,30.14,NNE,27,3.0,5.0,84,0.00,,OVC100,0.00,VWS V14.01,2013-04-16 10:38:00,
2013-04-16 05:43:00,33.5,29.2,30.12,NNE,23,5.0,7.0,84,0.00,,OVC100,0.00,VWS V14.01,2013-04-16 10:43:00,
2013-04-16 05:48:00,33.4,29.1,30.12,NNE,21,3.0,6.0,84,0.00,,OVC100,0.00,VWS V14.01,2013-04-16 10:48:00,
2013-04-16 05:53:00,33.4,29.1,30.14,NNE,17,3.0,7.0,84,0.00,,OVC100,0.00,VWS V14.01,2013-04-16 10:53:00,
2013-04-16 05:58:00,33.4,29.1,30.15,North,4,4.0,5.0,84,0.00,,OVC100,0.00,VWS V14.01,2013-04-16 10:58:00,
2013-04-16 06:03:00,33.4,29.4,30.14,North,10,4.0,6.0,85,0.00,,OVC120,0.00,VWS V14.01,2013-04-16 11:03:00,
2013-04-16 06:08:00,33.5,29.5,30.14,NNE,13,7.0,7.0,85,0.00,,OVC120,0.00,VWS V14.01,2013-04-16 11:08:00,
2013-04-16 06:13:00,33.7,29.4,30.15,NNW,338,6.0,8.0,84,0.00,,OVC120,0.00,VWS V14.01,2013-04-16 11:13:00,
2013-04-16 06:18:00,33.8,29.5,30.16,NE,37,2.0,4.0,84,0.00,,OVC120,0.00,VWS V14.01,2013-04-16 11:18:00,
2013-04-16 06:23:00,33.9,29.6,30.16,NNE,17,5.0,7.0,84,0.00,,OVC120,0.00,VWS V14.01,2013-04-16 11:23:00,
2013-04-16 06:28:00,34.0,29.7,30.16,North,350,6.0,7.0,84,0.00,,OVC120,0.00,VWS V14.01,2013-04-16 11:28:00,
2013-04-16 06:33:00,34.1,29.8,30.17,NNE,20,7.0,7.0,84,0.00,,OVC120,0.00,VWS V14.01,2013-04-16 11:33:00,
2013-04-16 06:38:00,34.2,29.6,30.17,NNW,347,5.0,6.0,83,0.00,,OVC120,0.00,VWS V14.01,2013-04-16 11:38:00,
2013-04-16 06:43:00,34.3,30.0,30.17,NNE,12,5.0,5.0,84,0.00,,OVC120,0.00,VWS V14.01,2013-04-16 11:43:00,
2013-04-16 06:48:00,34.4,29.8,30.17,NE,54,2.0,6.0,83,0.00,,OVC120,0.00,VWS V14.01,2013-04-16 11:48:00,
2013-04-16 06:54:00,34.4,30.1,30.17,NE,50,4.0,5.0,84,0.00,,OVC120,0.00,VWS V14.01,2013-04-16 11:54:00,
2013-04-16 06:59:00,34.5,29.9,30.17,NE,56,0.0,2.0,83,0.00,,OVC120,0.00,VWS V14.01,2013-04-16 11:59:00,
2013-04-16 07:04:00,34.5,29.9,30.18,NE,45,3.0,5.0,83,0.00,,OVC120,0.00,VWS V14.01,2013-04-16 12:04:00,
2013-04-16 07:09:00,34.5,29.9,30.18,NE,48,3.0,5.0,83,0.00,,OVC120,0.00,VWS V14.01,2013-04-16 12:09:00,
2013-04-16 07:14:00,34.5,29.9,30.19,North,4,5.0,6.0,83,0.00,,OVC120,0.00,VWS V14.01,2013-04-16 12:14:00,
2013-04-16 07:19:00,34.5,29.9,30.19,NNE,25,5.0,6.0,83,0.00,,OVC120,0.00,VWS V14.01,2013-04-16 12:19:00,
2013-04-16 07:24:00,34.5,29.9,30.20,NE,37,4.0,5.0,83,0.00,,OVC120,0.00,VWS V14.01,2013-04-16 12:24:00,
2013-04-16 07:29:00,34.6,30.0,30.19,NNE,31,6.0,6.0,83,0.00,,OVC120,0.00,VWS V14.01,2013-04-16 12:29:00,
2013-04-16 07:34:00,34.6,30.0,30.19,NNE,26,2.0,6.0,83,0.00,,OVC120,0.00,VWS V14.01,2013-04-16 12:34:00,
2013-04-16 07:39:00,34.7,30.1,30.20,NNE,29,1.0,3.0,83,0.00,,OVC120,0.00,VWS V14.01,2013-04-16 12:39:00,
2013-04-16 07:44:00,34.8,30.2,30.20,NE,38,5.0,7.0,83,0.00,,OVC120,0.00,VWS V14.01,2013-04-16 12:44:00,
2013-04-16 07:49:00,34.8,30.2,30.20,NE,35,3.0,7.0,83,0.00,,OVC120,0.00,VWS V14.01,2013-04-16 12:49:00,
2013-04-16 07:54:00,34.9,30.3,30.21,North,11,3.0,6.0,83,0.00,,OVC120,0.00,VWS V14.01,2013-04-16 12:54:00,
2013-04-16 07:59:00,35.0,30.1,30.21,NNE,25,5.0,6.0,82,0.00,,OVC120,0.00,VWS V14.01,2013-04-16 12:59:00,
2013-04-16 08:04:00,35.1,30.2,30.21,NNE,32,5.0,6.0,82,0.00,,OVC140,0.00,VWS V14.01,2013-04-16 13:04:00,
2013-04-16 08:09:00,35.2,30.3,30.22,NE,36,3.0,7.0,82,0.00,,OVC140,0.00,VWS V14.01,2013-04-16 13:09:00,
2013-04-16 08:14:00,35.3,30.1,30.21,North,4,7.0,8.0,81,0.00,,OVC140,0.00,VWS V14.01,2013-04-16 13:14:00,
2013-04-16 08:19:00,35.4,30.2,30.21,NNE,24,4.0,6.0,81,0.00,,OVC140,0.00,VWS V14.01,2013-04-16 13:19:00,
2013-04-16 08:24:00,35.5,30.3,30.21,North,359,5.0,7.0,81,0.00,,OVC140,0.00,VWS V14.01,2013-04-16 13:24:00,
2013-04-16 08:29:00,35.7,30.5,30.22,NNE,21,4.0,6.0,81,0.00,,OVC140,0.00,VWS V14.01,2013-04-16 13:29:00,
2013-04-16 08:34:00,35.8,30.5,30.22,ENE,68,2.0,2.0,81,0.00,,OVC140,0.00,VWS V14.01,2013-04-16 13:34:00,
2013-04-16 08:39:00,36.1,30.5,30.22,NNE,25,4.0,6.0,80,0.00,,OVC140,0.00,VWS V14.01,2013-04-16 13:39:00,
2013-04-16 08:44:00,36.3,30.4,30.22,NE,39,3.0,6.0,79,0.00,,OVC140,0.00,VWS V14.01,2013-04-16 13:44:00,
2013-04-16 08:49:00,36.4,30.2,30.23,NE,41,2.0,5.0,78,0.00,,OVC140,0.00,VWS V14.01,2013-04-16 13:49:00,
2013-04-16 08:54:00,36.6,30.4,30.23,NNE,15,5.0,5.0,78,0.00,,OVC140,0.00,VWS V14.01,2013-04-16 13:54:00,
2013-04-16 08:59:00,36.7,30.2,30.23,NNE,14,4.0,7.0,77,0.00,,OVC140,0.00,VWS V14.01,2013-04-16 13:59:00,
2013-04-16 09:04:00,36.8,30.3,30.23,ENE,58,2.0,5.0,77,0.00,,OVC140,0.00,VWS V14.01,2013-04-16 14:04:00,
2013-04-16 09:09:00,36.9,30.0,30.23,NNE,13,7.0,7.0,76,0.00,,OVC140,0.00,VWS V14.01,2013-04-16 14:09:00,
2013-04-16 09:14:00,36.9,29.7,30.23,NNW,339,5.0,10.0,75,0.00,,OVC140,0.00,VWS V14.01,2013-04-16 14:14:00,
2013-04-16 09:19:00,36.9,29.7,30.24,NNE,29,2.0,7.0,75,0.00,,OVC140,0.00,VWS V14.01,2013-04-16 14:19:00,
2013-04-16 09:24:00,37.0,29.8,30.23,NE,39,4.0,7.0,75,0.00,,OVC140,0.00,VWS V14.01,2013-04-16 14:24:00,
2013-04-16 09:29:00,37.2,30.0,30.24,NE,44,5.0,6.0,75,0.00,,OVC140,0.00,VWS V14.01,2013-04-16 14:29:00,
2013-04-16 09:35:00,37.4,30.2,30.24,NE,47,3.0,4.0,75,0.00,,OVC140,0.00,VWS V14.01,2013-04-16 14:35:00,
2013-04-16 09:40:00,37.6,30.1,30.23,NNE,19,7.0,9.0,74,0.00,,OVC140,0.00,VWS V14.01,2013-04-16 14:40:00,
2013-04-16 09:45:00,37.6,30.1,30.23,NNW,332,9.0,10.0,74,0.00,,OVC140,0.00,VWS V14.01,2013-04-16 14:45:00,
2013-04-16 09:50:00,37.6,29.7,30.23,NNE,25,5.0,9.0,73,0.00,,OVC140,0.00,VWS V14.01,2013-04-16 14:50:00,
2013-04-16 09:55:00,37.6,30.1,30.23,NNE,29,4.0,7.0,74,0.00,,OVC140,0.00,VWS V14.01,2013-04-16 14:55:00,
2013-04-16 10:00:00,37.8,29.9,30.23,North,8,9.0,10.0,73,0.00,,OVC140,0.00,VWS V14.01,2013-04-16 15:00:00,
2013-04-16 10:05:00,37.9,30.0,30.24,NNE,32,1.0,7.0,73,0.00,,OVC140,0.00,VWS V14.01,2013-04-16 15:05:00,
2013-04-16 10:10:00,38.1,30.2,30.24,NE,35,5.0,8.0,73,0.00,,OVC140,0.00,VWS V14.01,2013-04-16 15:10:00,
2013-04-16 10:15:00,38.4,30.2,30.24,North,4,7.0,7.0,72,0.00,,OVC140,0.00,VWS V14.01,2013-04-16 15:15:00,
2013-04-16 10:20:00,38.5,29.9,30.24,NNE,14,8.0,8.0,71,0.00,,OVC140,0.00,VWS V14.01,2013-04-16 15:20:00,
2013-04-16 10:25:00,38.6,29.7,30.24,ENE,70,2.0,6.0,70,0.00,,OVC140,0.00,VWS V14.01,2013-04-16 15:25:00,
2013-04-16 10:30:00,38.9,30.0,30.24,NE,44,8.0,8.0,70,0.00,,OVC140,0.00,VWS V14.01,2013-04-16 15:30:00,
2013-04-16 10:35:00,39.0,29.7,30.24,NE,43,3.0,9.0,69,0.00,,OVC140,0.00,VWS V14.01,2013-04-16 15:35:00,
2013-04-16 10:40:00,39.3,30.0,30.24,ENE,62,5.0,8.0,69,0.00,,OVC140,0.00,VWS V14.01,2013-04-16 15:40:00,
2013-04-16 10:45:00,39.3,28.9,30.24,North,10,6.0,9.0,66,0.00,,OVC140,0.00,VWS V14.01,2013-04-16 15:45:00,
2013-04-16 10:50:00,39.4,29.4,30.24,NNE,25,8.0,8.0,67,0.00,,OVC140,0.00,VWS V14.01,2013-04-16 15:50:00,
2013-04-16 10:55:00,39.7,29.3,30.24,NE,43,7.0,9.0,66,0.00,,OVC140,0.00,VWS V14.01,2013-04-16 15:55:00,
2013-04-16 11:00:00,39.8,29.0,30.24,NNE,15,10.0,11.0,65,0.00,,OVC140,0.00,VWS V14.01,2013-04-16 16:00:00,
2013-04-16 11:05:00,39.9,29.9,30.24,NNE,33,4.0,9.0,67,0.00,,BKN140,0.00,VWS V14.01,2013-04-16 16:05:00,
2013-04-16 11:10:00,40.4,29.6,30.24,ENE,70,10.0,10.0,65,0.00,,BKN140,0.00,VWS V14.01,2013-04-16 16:10:00,
2013-04-16 11:15:00,40.6,29.8,30.24,NE,39,7.0,8.0,65,0.00,,BKN140,0.00,VWS V14.01,2013-04-16 16:15:00,
2013-04-16 11:20:00,40.6,29.0,30.24,NNE,12,8.0,14.0,63,0.00,,BKN140,0.00,VWS V14.01,2013-04-16 16:20:00,
2013-04-16 11:25:00,40.4,29.2,30.24,NNE,33,6.0,8.0,64,0.00,,BKN140,0.00,VWS V14.01,2013-04-16 16:25:00,
2013-04-16 11:30:00,40.8,29.6,30.23,North,10,10.0,12.0,64,0.00,,BKN140,0.00,VWS V14.01,2013-04-16 16:30:00,
2013-04-16 11:35:00,41.0,29.4,30.23,NNE,33,6.0,9.0,63,0.00,,BKN140,0.00,VWS V14.01,2013-04-16 16:35:00,
2013-04-16 11:40:00,41.5,29.1,30.24,East,82,5.0,11.0,61,0.00,,BKN140,0.00,VWS V14.01,2013-04-16 16:40:00,
2013-04-16 11:45:00,41.6,29.6,30.23,NE,54,4.0,7.0,62,0.00,,BKN140,0.00,VWS V14.01,2013-04-16 16:45:00,
2013-04-16 11:50:00,41.9,29.5,30.23,NNE,16,5.0,14.0,61,0.00,,BKN140,0.00,VWS V14.01,2013-04-16 16:50:00,
2013-04-16 11:55:00,42.0,29.1,30.23,NE,39,7.0,11.0,60,0.00,,BKN140,0.00,VWS V14.01,2013-04-16 16:55:00,
2013-04-16 12:00:00,42.2,29.3,30.22,North,354,4.0,17.0,60,0.00,,BKN140,0.00,VWS V14.01,2013-04-16 17:00:00,
2013-04-16 12:05:00,42.6,29.3,30.22,NE,43,9.0,16.0,59,0.00,,BKN120,0.00,VWS V14.01,2013-04-16 17:05:00,
2013-04-16 12:10:00,42.8,29.1,30.22,North,4,13.0,18.0,58,0.00,,BKN120,0.00,VWS V14.01,2013-04-16 17:10:00,
2013-04-16 12:15:00,42.8,29.1,30.22,NE,35,8.0,11.0,58,0.00,,BKN120,0.00,VWS V14.01,2013-04-16 17:15:00,
2013-04-16 12:20:00,42.8,29.1,30.21,NE,48,4.0,11.0,58,0.00,,BKN120,0.00,VWS V14.01,2013-04-16 17:20:00,
2013-04-16 12:25:00,42.6,28.5,30.21,NE,39,5.0,15.0,57,0.00,,BKN120,0.00,VWS V14.01,2013-04-16 17:25:00,
2013-04-16 12:30:00,42.9,28.7,30.21,ENE,68,8.0,13.0,57,0.00,,BKN120,0.00,VWS V14.01,2013-04-16 17:30:00,
2013-04-16 12:35:00,43.3,30.0,30.21,North,359,4.0,10.0,59,0.00,,BKN120,0.00,VWS V14.01,2013-04-16 17:35:00,
2013-04-16 12:40:00,43.6,29.0,30.21,NNE,23,9.0,15.0,56,0.00,,BKN120,0.00,VWS V14.01,2013-04-16 17:40:00,
2013-04-16 12:45:00,43.5,29.3,30.20,NNE,27,7.0,10.0,57,0.00,,BKN120,0.00,VWS V14.01,2013-04-16 17:45:00,
2013-04-16 12:50:00,44.2,29.5,30.20,ENE,58,3.0,12.0,56,0.00,,BKN120,0.00,VWS V14.01,2013-04-16 17:50:00,
2013-04-16 12:55:00,44.6,29.5,30.20,ENE,59,8.0,10.0,55,0.00,,BKN120,0.00,VWS V14.01,2013-04-16 17:55:00,
2013-04-16 13:00:00,44.9,29.7,30.20,NE,37,7.0,8.0,55,0.00,,SCT110,0.00,VWS V14.01,2013-04-16 18:00:00,
2013-04-16 13:05:00,44.7,29.1,30.19,NNE,12,10.0,12.0,54,0.00,,SCT110,0.00,VWS V14.01,2013-04-16 18:05:00,
2013-04-16 13:10:00,44.7,29.5,30.19,NE,47,9.0,10.0,55,0.00,,SCT110,0.00,VWS V14.01,2013-04-16 18:10:00,
2013-04-16 13:15:00,44.9,29.3,30.19,NNE,18,12.0,16.0,54,0.00,,SCT110,0.00,VWS V14.01,2013-04-16 18:15:00,
2013-04-16 13:21:00,44.7,29.5,30.19,NNE,16,7.0,7.0,55,0.00,,SCT110,0.00,VWS V14.01,2013-04-16 18:21:00,
2013-04-16 13:26:00,44.6,29.0,30.19,NNE,21,4.0,11.0,54,0.00,,SCT110,0.00,VWS V14.01,2013-04-16 18:26:00,
2013-04-16 13:31:00,45.0,28.9,30.18,NE,35,3.0,8.0,53,0.00,,SCT110,0.00,VWS V14.01,2013-04-16 18:31:00,
2013-04-16 13:36:00,45.3,28.7,30.18,NNE,20,11.0,14.0,52,0.00,,SCT110,0.00,VWS V14.01,2013-04-16 18:36:00,
2013-04-16 13:41:00,45.5,28.9,30.18,NE,41,5.0,10.0,52,0.00,,SCT110,0.00,VWS V14.01,2013-04-16 18:41:00,
2013-04-16 13:46:00,45.9,28.8,30.18,NE,43,6.0,12.0,51,0.00,,SCT110,0.00,VWS V14.01,2013-04-16 18:46:00,
2013-04-16 13:52:00,45.9,29.3,30.18,ENE,57,3.0,15.0,52,0.00,,SCT110,0.00,VWS V14.01,2013-04-16 18:52:00,
2013-04-16 13:57:00,46.1,29.0,30.18,NNE,14,7.0,12.0,51,0.00,,SCT110,0.00,VWS V14.01,2013-04-16 18:57:00,
2013-04-16 14:02:00,46.4,29.3,30.19,NE,45,5.0,7.0,51,0.00,,BKN120,0.00,VWS V14.01,2013-04-16 19:02:00,
2013-04-16 14:07:00,46.6,29.0,30.19,NNE,33,4.0,7.0,50,0.00,,BKN120,0.00,VWS V14.01,2013-04-16 19:07:00,
2013-04-16 14:12:00,46.6,29.9,30.19,NNE,31,5.0,8.0,52,0.00,,BKN120,0.00,VWS V14.01,2013-04-16 19:12:00,
2013-04-16 14:17:00,46.9,29.2,30.18,ENE,75,4.0,10.0,50,0.00,,BKN120,0.00,VWS V14.01,2013-04-16 19:17:00,
2013-04-16 14:22:00,47.3,29.1,30.18,NE,51,6.0,11.0,49,0.00,,BKN120,0.00,VWS V14.01,2013-04-16 19:22:00,
2013-04-16 14:27:00,47.6,29.9,30.18,NNE,25,7.0,15.0,50,0.00,,BKN120,0.00,VWS V14.01,2013-04-16 19:27:00,
2013-04-16 14:32:00,47.7,29.0,30.17,NE,37,4.0,10.0,48,0.00,,BKN120,0.00,VWS V14.01,2013-04-16 19:32:00,
2013-04-16 14:37:00,47.5,29.8,30.17,East,86,8.0,13.0,50,0.00,,BKN120,0.00,VWS V14.01,2013-04-16 19:37:00,
2013-04-16 14:42:00,47.6,29.9,30.17,NNE,32,7.0,9.0,50,0.00,,BKN120,0.00,VWS V14.01,2013-04-16 19:42:00,
2013-04-16 14:47:00,47.5,29.8,30.17,ENE,70,8.0,15.0,50,0.00,,BKN120,0.00,VWS V14.01,2013-04-16 19:47:00,
2013-04-16 14:52:00,47.4,29.7,30.17,NE,50,4.0,8.0,50,0.00,,BKN120,0.00,VWS V14.01,2013-04-16 19:52:00,
2013-04-16 14:57:00,47.6,29.9,30.17,ESE,121,4.0,11.0,50,0.00,,BKN120,0.00,VWS V14.01,2013-04-16 19:57:00,
2013-04-16 15:02:00,47.5,29.3,30.16,NE,54,7.0,11.0,49,0.00,,BKN120,0.00,VWS V14.01,2013-04-16 20:02:00,
2013-04-16 15:07:00,47.8,30.1,30.16,North,11,7.0,14.0,50,0.00,,BKN120,0.00,VWS V14.01,2013-04-16 20:07:00,
2013-04-16 15:12:00,48.2,29.5,30.17,ENE,72,14.0,16.0,48,0.00,,BKN120,0.00,VWS V14.01,2013-04-16 20:12:00,
2013-04-16 15:17:00,48.1,29.9,30.16,NNE,12,6.0,10.0,49,0.00,,BKN120,0.00,VWS V14.01,2013-04-16 20:17:00,
2013-04-16 15:22:00,48.0,29.8,30.16,ENE,70,3.0,10.0,49,0.00,,BKN120,0.00,VWS V14.01,2013-04-16 20:22:00,
2013-04-16 15:27:00,48.2,30.0,30.16,ENE,57,2.0,11.0,49,0.00,,BKN120,0.00,VWS V14.01,2013-04-16 20:27:00,
2013-04-16 15:32:00,48.2,30.5,30.16,NNE,13,6.0,8.0,50,0.00,,BKN120,0.00,VWS V14.01,2013-04-16 20:32:00,
2013-04-16 15:38:00,48.3,30.0,30.16,NNE,29,5.0,12.0,49,0.00,,BKN120,0.00,VWS V14.01,2013-04-16 20:38:00,
2013-04-16 15:43:00,48.5,30.7,30.16,ESE,106,9.0,9.0,50,0.00,,BKN120,0.00,VWS V14.01,2013-04-16 20:43:00,
2013-04-16 15:48:00,48.5,30.2,30.16,NNE,31,6.0,9.0,49,0.00,,BKN120,0.00,VWS V14.01,2013-04-16 20:48:00,
2013-04-16 15:53:00,48.6,30.8,30.16,East,89,5.0,8.0,50,0.00,,BKN120,0.00,VWS V14.01,2013-04-16 20:53:00,
2013-04-16 15:58:00,48.5,30.2,30.16,East,85,7.0,13.0,49,0.00,,BKN120,0.00,VWS V14.01,2013-04-16 20:58:00,
2013-04-16 16:03:00,48.3,30.0,30.16,ENE,78,5.0,11.0,49,0.00,,BKN120,0.00,VWS V14.01,2013-04-16 21:03:00,
2013-04-16 16:08:00,48.4,30.6,30.15,East,85,6.0,10.0,50,0.00,,BKN120,0.00,VWS V14.01,2013-04-16 21:08:00,
2013-04-16 16:13:00,48.5,30.7,30.15,ENE,62,8.0,10.0,50,0.00,,BKN120,0.00,VWS V14.01,2013-04-16 21:13:00,
2013-04-16 16:35:00,48.5,31.2,30.15,ENE,59,9.0,9.0,51,0.00,,BKN120,0.00,VWS V14.01,2013-04-16 21:35:00,
2013-04-16 16:40:00,48.5,31.7,30.14,NE,50,4.0,8.0,52,0.00,,BKN120,0.00,VWS V14.01,2013-04-16 21:40:00,
2013-04-16 16:45:00,48.8,32.0,30.14,ESE,102,8.0,11.0,52,0.00,,BKN120,0.00,VWS V14.01,2013-04-16 21:45:00,
2013-04-16 16:50:00,49.0,32.2,30.14,East,99,6.0,11.0,52,0.00,,BKN120,0.00,VWS V14.01,2013-04-16 21:50:00,
2013-04-16 16:55:00,48.9,31.6,30.14,ENE,60,9.0,13.0,51,0.00,,BKN120,0.00,VWS V14.01,2013-04-16 21:55:00,
2013-04-16 17:00:00,48.8,32.0,30.14,NE,36,9.0,9.0,52,0.00,,BKN120,0.00,VWS V14.01,2013-04-16 22:00:00,
2013-04-16 17:05:00,48.6,31.8,30.14,East,81,7.0,10.0,52,0.00,,BKN090,0.00,VWS V14.01,2013-04-16 22:05:00,
2013-04-16 17:10:00,48.4,31.6,30.14,ENE,64,11.0,18.0,52,0.00,,BKN090,0.00,VWS V14.01,2013-04-16 22:10:00,
2013-04-16 17:15:00,48.2,31.9,30.14,ENE,67,4.0,10.0,53,0.00,,BKN090,0.00,VWS V14.01,2013-04-16 22:15:00,
2013-04-16 17:20:00,48.2,31.9,30.14,ENE,75,3.0,14.0,53,0.00,,BKN090,0.00,VWS V14.01,2013-04-16 22:20:00,
2013-04-16 17:25:00,48.1,31.8,30.14,North,4,3.0,9.0,53,0.00,,BKN090,0.00,VWS V14.01,2013-04-16 22:25:00,
2013-04-16 17:30:00,48.2,31.9,30.14,NE,39,7.0,9.0,53,0.00,,BKN090,0.00,VWS V14.01,2013-04-16 22:30:00,
2013-04-16 17:35:00,48.2,31.9,30.14,NE,35,5.0,12.0,53,0.00,,BKN090,0.00,VWS V14.01,2013-04-16 22:35:00,
2013-04-16 17:40:00,48.1,32.3,30.14,ENE,60,4.0,15.0,54,0.00,,BKN090,0.00,VWS V14.01,2013-04-16 22:40:00,
2013-04-16 17:45:00,48.1,32.3,30.14,ENE,60,2.0,9.0,54,0.00,,BKN090,0.00,VWS V14.01,2013-04-16 22:45:00,
2013-04-16 17:50:00,48.1,32.7,30.14,ENE,72,4.0,9.0,55,0.00,,BKN090,0.00,VWS V14.01,2013-04-16 22:50:00,
2013-04-16 17:55:00,48.2,32.8,30.14,ENE,76,4.0,8.0,55,0.00,,BKN090,0.00,VWS V14.01,2013-04-16 22:55:00,
2013-04-16 18:00:00,48.0,32.2,30.15,NE,34,11.0,11.0,54,0.00,,OVC090,0.00,VWS V14.01,2013-04-16 23:00:00,
2013-04-16 18:05:00,47.9,32.5,30.14,NE,54,7.0,9.0,55,0.00,,OVC090,0.00,VWS V14.01,2013-04-16 23:05:00,
2013-04-16 18:10:00,47.9,33.0,30.14,ENE,73,8.0,11.0,56,0.00,,OVC090,0.00,VWS V14.01,2013-04-16 23:10:00,
2013-04-16 18:15:00,48.0,32.6,30.14,East,95,9.0,14.0,55,0.00,,OVC090,0.00,VWS V14.01,2013-04-16 23:15:00,
2013-04-16 18:21:00,47.9,32.5,30.14,NE,52,5.0,13.0,55,0.00,,OVC090,0.00,VWS V14.01,2013-04-16 23:21:00,
2013-04-16 18:26:00,47.7,32.8,30.14,NW,306,3.0,10.0,56,0.00,,OVC090,0.00,VWS V14.01,2013-04-16 23:26:00,
2013-04-16 18:31:00,47.6,32.7,30.14,East,100,7.0,11.0,56,0.00,,OVC090,0.00,VWS V14.01,2013-04-16 23:31:00,
2013-04-16 18:36:00,47.6,33.1,30.13,East,87,8.0,17.0,57,0.00,,OVC090,0.00,VWS V14.01,2013-04-16 23:36:00,
2013-04-16 18:41:00,47.4,33.0,30.13,ENE,59,10.0,15.0,57,0.00,,OVC090,0.00,VWS V14.01,2013-04-16 23:41:00,
2013-04-16 18:46:00,47.3,33.3,30.14,East,83,3.0,8.0,58,0.00,,OVC090,0.00,VWS V14.01,2013-04-16 23:46:00,
2013-04-16 18:51:00,47.2,33.2,30.14,East,84,6.0,13.0,58,0.00,,OVC090,0.00,VWS V14.01,2013-04-16 23:51:00,
2013-04-16 18:56:00,47.2,33.2,30.13,NE,52,8.0,12.0,58,0.00,,OVC090,0.00,VWS V14.01,2013-04-16 23:56:00,
2013-04-16 19:01:00,47.1,33.1,30.13,East,86,6.0,10.0,58,0.00,,OVC065,0.00,VWS V14.01,2013-04-17 00:01:00,
2013-04-16 19:06:00,47.0,33.4,30.14,ENE,68,8.0,9.0,59,0.00,,OVC065,0.00,VWS V14.01,2013-04-17 00:06:00,
2013-04-16 19:11:00,46.9,33.8,30.14,East,91,7.0,14.0,60,0.00,,OVC065,0.00,VWS V14.01,2013-04-17 00:11:00,
2013-04-16 19:16:00,46.8,33.7,30.14,ENE,74,5.0,10.0,60,0.00,,OVC065,0.00,VWS V14.01,2013-04-17 00:16:00,
2013-04-16 19:22:00,46.8,34.1,30.13,NE,52,4.0,10.0,61,0.00,,OVC065,0.00,VWS V14.01,2013-04-17 00:22:00,
2013-04-16 19:27:00,46.8,34.1,30.13,ENE,64,10.0,11.0,61,0.00,,OVC065,0.00,VWS V14.01,2013-04-17 00:27:00,
2013-04-16 19:32:00,46.8,34.5,30.13,ENE,62,9.0,11.0,62,0.00,,OVC065,0.00,VWS V14.01,2013-04-17 00:32:00,
2013-04-16 19:37:00,46.8,34.5,30.13,ENE,63,9.0,11.0,62,0.00,,OVC065,0.00,VWS V14.01,2013-04-17 00:37:00,
2013-04-16 19:42:00,46.8,34.5,30.13,ENE,63,2.0,9.0,62,0.00,,OVC065,0.00,VWS V14.01,2013-04-17 00:42:00,
2013-04-16 19:47:00,46.7,34.8,30.13,East,91,7.0,8.0,63,0.00,,OVC065,0.00,VWS V14.01,2013-04-17 00:47:00,
2013-04-16 19:52:00,46.8,34.9,30.13,ENE,75,4.0,10.0,63,0.00,,OVC065,0.00,VWS V14.01,2013-04-17 00:52:00,
2013-04-16 19:57:00,46.7,34.0,30.13,ENE,60,10.0,12.0,61,0.00,,OVC065,0.00,VWS V14.01,2013-04-17 00:57:00,
2013-04-16 20:02:00,46.6,33.5,30.13,NNE,31,6.0,9.0,60,0.00,,OVC060,0.00,VWS V14.01,2013-04-17 01:02:00,
2013-04-16 20:07:00,46.5,33.4,30.13,NE,53,5.0,10.0,60,0.00,,OVC060,0.00,VWS V14.01,2013-04-17 01:07:00,
2013-04-16 20:12:00,46.5,33.8,30.13,NE,51,6.0,10.0,61,0.00,,OVC060,0.00,VWS V14.01,2013-04-17 01:12:00,
2013-04-16 20:17:00,46.3,33.6,30.14,ENE,64,4.0,8.0,61,0.00,,OVC060,0.00,VWS V14.01,2013-04-17 01:17:00,
2013-04-16 20:22:00,46.3,33.6,30.14,East,95,7.0,11.0,61,0.00,,OVC060,0.00,VWS V14.01,2013-04-17 01:22:00,
2013-04-16 20:27:00,46.3,34.0,30.14,ENE,59,5.0,7.0,62,0.00,,OVC060,0.00,VWS V14.01,2013-04-17 01:27:00,
2013-04-16 20:32:00,46.2,33.9,30.14,East,93,6.0,10.0,62,0.00,,OVC060,0.00,VWS V14.01,2013-04-17 01:32:00,
2013-04-16 20:37:00,46.2,33.9,30.14,ENE,64,3.0,8.0,62,0.00,,OVC060,0.00,VWS V14.01,2013-04-17 01:37:00,
2013-04-16 20:42:00,46.2,34.3,30.15,ENE,68,4.0,10.0,63,0.00,,OVC060,0.00,VWS V14.01,2013-04-17 01:42:00,
2013-04-16 20:47:00,46.1,34.2,30.15,ENE,67,4.0,11.0,63,0.00,,OVC060,0.00,VWS V14.01,2013-04-17 01:47:00,
2013-04-16 20:52:00,46.1,34.2,30.15,ENE,57,10.0,10.0,63,0.00,,OVC060,0.00,VWS V14.01,2013-04-17 01:52:00,
2013-04-16 20:57:00,46.0,34.1,30.15,East,99,2.0,7.0,63,0.00,,OVC060,0.00,VWS V14.01,2013-04-17 01:57:00,
2013-04-16 21:02:00,46.0,34.5,30.15,East,87,2.0,5.0,64,0.00,,OVC060,0.00,VWS V14.01,2013-04-17 02:02:00,
2013-04-16 21:07:00,45.9,34.0,30.16,ENE,71,2.0,9.0,63,0.00,,OVC060,0.00,VWS V14.01,2013-04-17 02:07:00,
2013-04-16 21:13:00,45.9,34.4,30.16,ENE,77,4.0,4.0,64,0.00,,OVC060,0.00,VWS V14.01,2013-04-17 02:13:00,
2013-04-16 21:18:00,45.9,34.4,30.16,ENE,68,2.0,5.0,64,0.00,,OVC060,0.00,VWS V14.01,2013-04-17 02:18:00,
2013-04-16 21:23:00,45.8,34.3,30.16,NE,53,4.0,8.0,64,0.00,,OVC060,0.00,VWS V14.01,2013-04-17 02:23:00,
2013-04-16 21:28:00,45.8,34.3,30.16,NNE,25,1.0,5.0,64,0.00,,OVC060,0.00,VWS V14.01,2013-04-17 02:28:00,
2013-04-16 21:33:00,45.8,34.3,30.16,ENE,73,3.0,8.0,64,0.00,,OVC060,0.00,VWS V14.01,2013-04-17 02:33:00,
2013-04-16 21:38:00,45.8,34.3,30.16,ENE,77,5.0,7.0,64,0.00,,OVC060,0.00,VWS V14.01,2013-04-17 02:38:00,
2013-04-16 21:43:00,45.7,34.2,30.16,NE,54,3.0,9.0,64,0.00,,OVC060,0.00,VWS V14.01,2013-04-17 02:43:00,
2013-04-16 21:48:00,45.7,34.2,30.15,ESE,105,7.0,8.0,64,0.00,,OVC060,0.00,VWS V14.01,2013-04-17 02:48:00,
2013-04-16 21:53:00,45.7,34.2,30.15,East,79,7.0,10.0,64,0.00,,OVC060,0.00,VWS V14.01,2013-04-17 02:53:00,
2013-04-16 21:58:00,45.6,34.1,30.15,ENE,70,8.0,8.0,64,0.00,,OVC060,0.00,VWS V14.01,2013-04-17 02:58:00,
2013-04-16 22:03:00,45.6,34.5,30.15,ENE,73,2.0,6.0,65,0.00,,OVC060,0.00,VWS V14.01,2013-04-17 03:03:00,
2013-04-16 22:08:00,45.6,34.1,30.15,NE,53,1.0,4.0,64,0.00,,OVC060,0.00,VWS V14.01,2013-04-17 03:08:00,
2013-04-16 22:13:00,45.6,34.5,30.15,ENE,77,2.0,7.0,65,0.00,,OVC060,0.00,VWS V14.01,2013-04-17 03:13:00,
2013-04-16 22:18:00,45.6,34.5,30.15,ENE,77,5.0,8.0,65,0.00,,OVC060,0.00,VWS V14.01,2013-04-17 03:18:00,
2013-04-16 22:23:00,45.6,34.5,30.15,East,92,2.0,8.0,65,0.00,,OVC060,0.00,VWS V14.01,2013-04-17 03:23:00,
2013-04-16 22:28:00,45.6,34.5,30.15,ESE,109,1.0,8.0,65,0.00,,OVC060,0.00,VWS V14.01,2013-04-17 03:28:00,
2013-04-16 22:33:00,45.6,34.5,30.15,ENE,60,4.0,7.0,65,0.00,,OVC060,0.00,VWS V14.01,2013-04-17 03:33:00,
2013-04-16 22:38:00,45.6,34.9,30.15,ENE,64,5.0,5.0,66,0.00,,OVC060,0.00,VWS V14.01,2013-04-17 03:38:00,
2013-04-16 22:43:00,45.6,34.9,30.14,ENE,75,7.0,10.0,66,0.00,,OVC060,0.00,VWS V14.01,2013-04-17 03:43:00,
2013-04-16 22:48:00,45.6,34.9,30.14,ENE,62,4.0,9.0,66,0.00,,OVC060,0.00,VWS V14.01,2013-04-17 03:48:00,
2013-04-16 22:53:00,45.6,34.5,30.14,ENE,77,2.0,6.0,65,0.00,,OVC060,0.00,VWS V14.01,2013-04-17 03:53:00,
2013-04-16 22:58:00,45.6,34.5,30.14,SSE,150,2.0,10.0,65,0.00,,OVC060,0.00,VWS V14.01,2013-04-17 03:58:00,
2013-04-16 23:00:00,45.6,34.5,30.14,ENE,73,8.0,11.0,65,0.00,,OVC060,0.00,VWS V14.01,2013-04-17 04:00:00,
2013-04-16 23:01:00,45.7,34.6,30.14,NE,39,7.0,11.0,65,0.00,,OVC055,0.00,VWS V14.01,2013-04-17 04:01:00,
2013-04-16 23:06:00,45.7,34.6,30.14,ENE,77,9.0,9.0,65,0.00,,OVC055,0.00,VWS V14.01,2013-04-17 04:06:00,
2013-04-16 23:11:00,45.7,34.6,30.14,SE,126,3.0,10.0,65,0.00,,OVC055,0.00,VWS V14.01,2013-04-17 04:11:00,
2013-04-16 23:16:00,45.7,34.6,30.15,NE,52,4.0,7.0,65,0.00,,OVC055,0.00,VWS V14.01,2013-04-17 04:16:00,
2013-04-16 23:21:00,45.7,34.6,30.15,ENE,71,3.0,10.0,65,0.00,,OVC055,0.00,VWS V14.01,2013-04-17 04:21:00,
2013-04-16 23:26:00,45.7,34.6,30.15,NE,50,6.0,8.0,65,0.00,,OVC055,0.00,VWS V14.01,2013-04-17 04:26:00,
2013-04-16 23:31:00,45.8,34.7,30.14,ENE,68,3.0,9.0,65,0.00,,OVC055,0.00,VWS V14.01,2013-04-17 04:31:00,
2013-04-16 23:36:00,45.7,34.6,30.14,ESE,118,3.0,9.0,65,0.00,,OVC055,0.00,VWS V14.01,2013-04-17 04:36:00,
2013-04-16 23:41:00,45.7,34.6,30.14,NE,55,5.0,11.0,65,0.00,,OVC055,0.00,VWS V14.01,2013-04-17 04:41:00,
2013-04-16 23:46:00,45.8,34.7,30.14,NE,48,3.0,9.0,65,0.00,,OVC055,0.00,VWS V14.01,2013-04-17 04:46:00,
2013-04-16 23:51:00,45.8,34.7,30.14,ESE,119,4.0,8.0,65,0.00,,OVC055,0.00,VWS V14.01,2013-04-17 04:51:00,
2013-04-16 23:56:00,45.8,34.7,30.14,ENE,68,4.0,7.0,65,0.00,,OVC055,0.00,VWS V14.01,2013-04-17 04:56:00,